Date,TemperatureHighF,TemperatureAvgF,TemperatureLowF,DewpointHighF,DewpointAvgF,DewpointLowF,HumidityHigh,HumidityAvg,HumidityLow,PressureMaxIn,PressureMinIn,WindSpeedMaxMPH,WindSpeedAvgMPH,GustSpeedMaxMPH,PrecipitationSumIn
2013-2-1,34.7,22.8,11.3,13.0,8.4,6.0,82,57,34,30.42,30.15,5,1,11,0.00
2013-2-2,54.7,40.9,28.2,34.0,25.3,12.0,81,55,37,30.24,30.14,9,2,13,0.00
2013-2-3,56.2,44.5,25.2,29.0,24.5,20.0,82,48,27,30.21,29.77,9,3,15,0.00
2013-2-4,54.0,43.6,28.2,31.0,28.8,24.0,84,58,40,29.90,29.72,8,2,14,0.00
2013-2-5,64.4,43.5,27.0,31.0,26.2,24.0,87,57,24,29.99,29.85,6,1,9,0.00
2013-2-6,59.7,49.4,31.9,53.0,39.8,-99.9,92,74,48,29.98,29.75,14,3,16,0.00
2013-2-7,54.2,47.2,34.0,49.0,40.4,28.0,96,78,52,30.13,29.73,14,3,18,0.22
2013-2-8,45.2,33.7,25.7,33.0,28.6,24.0,95,83,61,30.29,30.10,4,1,9,0.00
2013-2-9,49.0,39.2,33.4,40.0,34.8,30.0,96,84,67,30.10,29.58,13,4,22,0.03
2013-2-10,49.7,42.4,34.3,44.0,31.3,24.0,96,67,44,29.98,29.43,14,4,18,0.04
2013-2-11,45.1,33.8,26.3,24.0,20.6,18.0,78,61,36,30.18,29.98,5,2,11,0.00
2013-2-12,40.3,33.3,25.7,30.0,23.6,19.0,91,69,48,30.13,29.96,2,0,5,0.00
2013-2-13,56.8,39.4,22.2,29.0,24.3,19.0,94,61,23,29.96,29.82,6,1,11,0.00
2013-2-14,49.6,39.8,33.1,32.0,26.3,19.0,74,60,46,30.22,29.86,8,2,16,0.00
2013-2-15,39.7,29.7,18.8,19.0,15.7,12.0,83,58,36,30.38,30.23,8,3,15,0.00
2013-2-16,45.7,30.8,12.7,27.0,17.7,9.0,85,60,37,30.34,29.97,10,2,14,0.00
2013-2-17,66.9,46.6,23.5,33.0,27.0,21.0,94,53,20,29.97,29.50,13,3,18,0.00
2013-2-18,54.9,45.4,26.1,41.0,28.2,18.0,72,52,39,30.07,29.37,19,6,31,0.00
2013-2-19,44.3,31.4,20.7,19.0,15.7,10.0,83,55,35,30.30,30.07,8,1,11,0.00
2013-2-20,29.7,26.3,22.5,26.0,16.8,4.0,90,70,38,30.23,29.98,5,2,8,0.00
2013-2-21,27.1,22.8,15.0,25.0,20.6,12.0,93,91,85,29.98,29.67,6,1,8,0.00
2013-2-22,26.5,17.2,8.7,16.0,11.9,6.0,90,80,64,30.13,29.89,3,0,5,0.10
2013-2-23,37.7,22.6,5.6,24.0,15.7,3.0,93,76,55,30.10,29.91,4,1,9,0.17
2013-2-24,45.9,34.3,20.3,33.0,26.2,17.0,88,73,55,29.91,29.73,4,1,9,0.06
2013-2-25,36.4,32.3,30.5,31.0,29.3,27.0,95,89,81,29.83,29.61,13,5,21,0.01
2013-2-26,34.5,30.2,25.4,30.0,26.7,23.0,95,86,76,29.89,29.66,12,3,13,0.06
2013-2-27,37.3,31.0,26.5,27.0,25.4,23.0,93,80,62,30.14,29.88,15,4,18,0.07
2013-2-28,34.9,30.7,24.8,28.0,25.0,21.0,86,79,72,30.20,30.12,11,3,14,0.01